Regional Weather Roundup
Issued by NWS Jackson, KY

Home | Current Version | Previous Version | Graphics & Text | Print | Product List | Glossary On
Versions: 1 2 3 4 5 6 7 8 9 10 11 12 13 14 15 16 17 18 19 20 21 22 23 24 25 26 27 28 29 30 31 32 33 34 35 36 37 38 39 40 41 42 43 44 45 46 47 48 49 50
000
ASUS43 KJKL 311619
RWRJKL

EAST KENTUCKY HOURLY WEATHER ROUNDUP
NATIONAL WEATHER SERVICE JACKSON KY
1200 PM EDT THU JUL 31 2014

NOTE: "FAIR" INDICATES FEW OR NO CLOUDS BELOW 12,000 FEET WITH
NO SIGNIFICANT WEATHER AND/OR OBSTRUCTIONS TO VISIBILITY.

* THESE REPORTS ARE NOT UNDER NWS QUALITY CONTROL AND MAY NOT
  REPORT WEATHER SUCH AS PRECIPITATION AND FOG.

KYZ079-080-083-085-087-088-110-112-115-119-120-311700
...EASTERN KENTUCKY...

CITY           SKY/WX    TMP DP  RH WIND       PRES   REMARKS
JACKSON        MOSUNNY   76  59  55 CALM      30.15S
LONDON         MOSUNNY   77  58  51 S5        30.15S
SOMERSET*      SUNNY     75  59  57 CALM      30.15S
MONTICELLO*    MOSUNNY   80  62  54 CALM      30.15S
WILLIAMSBURG*  SUNNY     73  63  68 CALM      30.15S
MIDDLESBORO*   MOSUNNY   71  62  72 CALM      30.15F
HARLAN APT*    PTSUNNY   73  59  60 MISG      30.16S
HAZARD APT*    SUNNY     77  59  53 CALM      30.15R
BLACK MTN*       N/A     68  52  56 E1          N/A
PIKEVILLE APT* SUNNY     73  61  64 CALM      30.15S
BIG SANDY*     MOSUNNY   76  58  53 CALM      30.15S
MOREHEAD APT*    N/A     77  61  57 VRB5      30.16S
ASHLAND*       SUNNY     77  63  61 N3        30.11S
$$

KYZ035-036-041-042-044-050-067-078-099-311700
...CENTRAL KENTUCKY...

CITY           SKY/WX    TMP DP  RH WIND       PRES   REMARKS
MT STERLING*   SUNNY     77  59  53 CALM      30.15S
FLEMING/MASON* MOSUNNY   77  60  55 W6        30.13S
DANVILLE*      SUNNY     77  59  53 SW3       30.14F
RICHMOND*      PTSUNNY   77  59  53 CALM      30.13S
LEXINGTON      SUNNY     78  56  46 SW6       30.13S
FRANKFORT      MOSUNNY   78  59  51 MISG      30.12S
$$

KYZ091>093-OHZ055-061-077-WVZ005-015-034-035-042-311700
...SOUTHERN OHIO/WEST VIRGINIA...

CITY           SKY/WX    TMP DP  RH WIND       PRES   REMARKS
COVINGTON      MOSUNNY   78  60  53 W8        30.11S
COLUMBUS       MOSUNNY   76  62  62 S7        30.09S
DAYTON         MOSUNNY   78  60  53 W12       30.11S
WILMINGTON     SUNNY     76  63  64 W9        30.11S
HUNTINGTON     SUNNY     75  63  66 S5        30.12S
CHARLESTON     MOSUNNY   77  62  59 SW6       30.13S
PINEVILLE*     SUNNY     78  61  55 MISG      30.22R
BECKLEY        MOSUNNY   73  51  46 W6        30.20S
BLUEFIELD      MOSUNNY   74  54  49 S5        30.22R
$$

VAZ002-007-008-TNZ017-027-036-066-071-311700
...SOUTHWEST VIRGINIA/EAST TENNESSEE...

CITY           SKY/WX    TMP DP  RH WIND       PRES   REMARKS
WISE*          PTSUNNY   72  55  56 SE5       30.22R
JONESVILLE*    PTSUNNY   75  59  57 E3        30.17S
ABINGDON*      PTSUNNY   75  57  53 CALM      30.18S
BRISTOL        PTSUNNY   73  58  59 VRB3      30.16S
KNOXVILLE      CLOUDY    71  60  68 E6        30.13R
OAK RIDGE      CLOUDY    73  62  68 VRB5      30.14S
CROSSVILLE     CLOUDY    72  58  61 NE6       30.17R
NASHVILLE      PTSUNNY   79  60  52 E9        30.12S
$$

...KEY TO REMARKS...
VSB - VISIBILITY IN MILES
WCI - WIND CHILL INDEX
HX  - HEAT INDEX

$$


USA.gov is the U.S. government's official web portal to all federal, state and local government web resources and services.